Hourly Data Report for October 05, 2022

MIRAMICHI RCS
NEW BRUNSWICK
Current Station Operator: ECCC - MSC

47°00'34.000" N
65°27'54.000" W
33.00 m
8100989
71744
ACQ

Download Data

Hourly Data (October 2022)
Hourly Data Report for October 5, 2022
TIME
LST
Temp Definition
°C
Dew Point Definition
°C
Rel Hum Definition
%
Precip. Amount Definition
mm

Wind Dir Definition
10's deg

Wind Spd Definition
km/h
Visibility Definition
km
Stn Press Definition
kPa
Hmdx Definition


Wind Chill Definition


Weather Definition


00:00 6.7 2.1 72 0.0 27 7   101.49     LegendNANA
01:00 5.1 2.0 80 0.0 25 7   101.48     LegendNANA
02:00 4.7 2.0 82 0.0 25 8   101.47     LegendNANA
03:00 4.1 1.7 84 0.0 25 6   101.41     LegendNANA
04:00 2.5 1.1 90 0.0 26 4   101.41     LegendNANA
05:00 2.3 0.7 89 0.0 25 6   101.43     LegendNANA
06:00 1.9 0.3 89 0.0 25 7   101.46     LegendNANA
07:00 2.2 0.8 90 0.0 26 7   101.46     LegendNANA
08:00 4.9 1.8 80 0.0 25 7   101.45     LegendNANA
09:00 8.7 3.0 67 0.0 24 6   101.43     LegendNANA
10:00 12.4 3.1 53 0.0 25 7   101.40     LegendNANA
11:00 16.1 3.8 44 0.0 23 5   101.36     LegendNANA
12:00 18.3 3.2 37 0.0 29 3   101.27     LegendNANA
13:00 19.7 -0.7 25 0.0 19 11   101.20     LegendNANA
14:00 20.8 1.5 28 0.0 18 8   101.14     LegendNANA
15:00 21.2 1.9 28 0.0 18 9   101.13     LegendNANA
16:00 20.9 0.5 26 0.0 20 10   101.08     LegendNANA
17:00 19.0 6.6 45 0.0 36 4   101.07     LegendNANA
18:00 15.0 8.4 65 0.0 2 2   101.07     LegendNANA
19:00 11.4 8.0 79 0.0 36 1   101.13     LegendNANA
20:00 10.9 8.9 88 0.0 13 2   101.14     LegendNANA
21:00 10.3 8.5 88 0.0 0 1   101.09     LegendNANA
22:00 8.8 7.9 94 0.0 33 3   101.06     LegendNANA
23:00 8.0 6.8 92 0.0 28 3   101.03     LegendNANA

Notes on Data Quality.

Legend

  • E = Estimated
  • M = Missing
  • NA = Not Available*
  • [empty] = Indicates an unobserved value
Date modified: